Theta_e
339 347 352 355 353 352 351 351 351 352 351 350 350 350 349 348 346 344 342 341 340 338 336 335 337 341 341 343 345 344 343 343 344 345 346 346 347 347 346 345 347 346 349
341 347 350 354 354 353 352 352 353 353 351 351 351 349 349 347 345 343 341 340 339 337 335 333 332 336 340 340 342 342 342 341 341 342 343 342 343 344 344 342 344 345 347
341 347 350 351 353 354 353 352 353 353 352 352 350 349 348 346 344 343 341 339 339 337 334 331 330 332 336 338 340 342 341 340 339 340 340 336 338 342 342 340 340 341 345
341 346 348 348 352 353 352 352 352 352 352 350 349 347 347 345 344 342 340 338 337 336 333 331 329 331 333 337 339 339 341 340 339 340 335 334 334 339 340 339 338 339 341
339 346 348 347 351 352 351 351 351 352 350 349 348 348 347 345 342 340 338 336 336 335 332 329 328 329 331 336 337 338 338 338 339 338 334 336 335 337 338 336 335 336 337
338 345 346 348 351 351 350 350 351 350 349 348 347 346 345 343 341 339 336 335 333 333 331 328 326 328 331 334 335 336 336 336 337 333 333 334 334 336 336 334 334 334 335
339 344 349 346 348 349 348 349 348 348 348 347 347 346 343 341 339 337 335 333 333 333 330 327 324 324 326 329 332 332 330 330 332 332 332 332 332 334 333 332 333 332 331
339 343 347 341 342 345 346 346 346 347 346 346 345 345 342 340 338 336 334 333 333 332 330 327 324 321 322 322 323 324 324 325 327 327 328 329 331 330 331 331 331 330 331
340 342 343 346 345 337 341 340 344 345 345 344 344 343 341 340 338 336 335 333 332 331 329 327 325 320 318 318 315 314 315 319 320 321 320 324 329 328 330 329 330 329 329
339 340 341 343 347 347 347 334 337 340 342 342 340 337 334 334 333 332 330 334 332 331 329 327 324 317 312 312 311 310 311 314 312 314 317 318 326 327 327 327 329 328 328
327 333 339 340 341 344 346 341 335 334 336 335 335 330 328 333 333 331 328 332 331 330 329 327 323 318 309 308 308 309 311 308 308 310 311 315 320 325 327 326 327 327 327
314 315 319 335 339 340 341 344 344 344 344 343 342 337 337 336 336 331 325 325 326 327 328 325 321 318 321 317 314 313 308 308 308 308 308 311 315 319 323 327 325 326 325
311 314 314 317 334 337 340 342 342 343 343 343 341 341 340 336 332 330 328 328 326 321 324 323 325 324 321 318 316 314 311 309 308 308 307 308 312 315 317 321 327 325 326
312 313 315 316 320 335 339 342 341 338 336 334 337 338 338 337 333 330 328 326 325 323 322 322 321 323 322 320 318 317 315 313 311 309 307 306 307 312 315 317 320 328 326
311 313 316 319 319 334 334 330 326 322 320 319 322 327 333 332 329 327 323 321 319 321 320 319 321 321 319 319 319 317 316 314 312 310 309 307 304 307 311 314 317 320 326
309 312 317 315 329 325 319 317 315 313 311 311 312 316 322 324 321 319 317 318 318 317 316 317 317 316 315 315 317 317 316 315 315 313 312 312 307 305 307 310 313 316 320
307 310 312 314 314 312 311 310 309 307 306 305 307 309 312 315 316 314 313 313 314 315 315 316 315 316 314 313 315 315 316 316 314 314 314 313 312 310 304 307 310 313 316
305 307 307 307 305 306 305 306 306 304 302 301 302 303 305 305 308 309 308 308 310 308 309 311 311 312 312 311 311 312 313 314 315 314 313 312 312 310 311 305 306 308 310
303 304 302 302 300 300 299 299 299 301 302 301 300 300 302 303 304 303 304 305 307 306 306 309 310 310 308 306 305 308 311 311 312 310 310 309 308 307 307 309 306 305 307
301 302 301 299 298 297 296 296 297 296 296 297 297 297 298 299 301 301 300 301 301 300 299 300 304 304 302 300 302 305 308 310 308 308 308 306 307 305 305 306 306 305 307
298 299 299 299 298 297 296 294 295 294 294 296 296 295 295 296 296 297 296 296 296 295 295 295 296 297 296 299 299 300 309 306 305 306 306 306 304 305 306 305 305 305 305
296 296 297 297 297 296 297 296 296 295 295 294 294 294 293 293 293 293 294 294 294 293 293 293 293 293 294 294 292 297 297 302 301 299 305 302 305 304 303 302 304 303 304
295 296 296 295 295 296 296 296 295 295 294 293 292 292 292 291 292 292 292 292 292 292 290 291 291 290 290 292 293 290 288 289 290 302 297 302 298 300 296 300 297 300 302
295 296 296 296 296 297 298 296 294 292 290 291 291 291 291 291 290 290 290 290 290 290 289 289 289 290 289 288 290 289 291 290 285 286 294 294 295 293 294 295 297 294 295
294 294 293 293 294 295 295 294 292 291 291 292 291 290 290 290 289 289 289 289 288 288 288 288 288 287 288 287 287 287 287 287 288 286 283 286 289 291 292 293 293 293 295
291 292 293 291 291 293 292 292 292 291 290 290 290 289 289 289 288 288 288 288 288 287 286 287 287 287 286 286 287 286 285 283 283 284 282 283 284 286 289 290 291 291 293
Wind_Speed
6 15 9 13 13 13 12 12 13 12 13 14 13 13 14 16 17 15 14 14 13 13 13 13 12 12 11 12 14 14 14 14 12 11 13 16 17 17 19 20 15 15 16
12 16 8 12 13 13 13 10 10 10 12 13 13 14 14 15 15 13 13 13 12 13 14 13 12 11 10 10 13 11 11 11 9 6 3 14 16 15 16 16 16 15 17
12 15 13 11 11 11 15 10 9 9 10 11 13 14 15 14 14 13 13 12 13 13 14 13 13 12 11 10 9 10 9 9 6 4 7 10 12 14 14 15 15 15 14
11 12 13 11 12 10 13 10 9 9 9 11 12 13 14 14 13 13 13 13 12 13 14 13 13 13 11 10 11 10 9 7 4 7 5 9 11 15 15 14 15 15 14
9 11 12 11 12 11 12 10 9 8 8 10 11 13 13 14 13 13 13 13 13 14 14 14 13 13 12 11 11 11 10 5 7 4 9 9 9 12 14 14 14 14 14
7 9 13 7 12 11 10 10 8 8 8 9 12 11 14 14 13 13 13 13 12 13 14 14 14 13 13 12 11 11 9 10 13 8 7 9 11 12 13 13 13 13 13
7 7 10 5 6 11 10 9 8 7 7 9 11 14 14 14 13 13 13 11 12 13 13 14 14 13 13 13 12 12 11 12 7 7 7 10 9 11 12 12 12 13 12
6 5 10 6 4 4 9 10 9 8 8 9 11 14 14 13 13 13 12 12 12 12 12 13 13 13 13 13 12 12 12 11 4 7 6 8 11 10 11 11 11 12 13
6 5 6 9 8 4 4 6 8 9 9 9 11 13 12 12 12 12 12 13 12 11 12 12 13 12 12 12 11 10 9 10 6 5 5 7 11 10 10 10 10 11 12
5 5 5 7 4 9 7 9 8 8 7 9 11 11 10 10 11 10 10 9 12 12 11 11 12 12 10 10 11 9 7 6 6 5 5 6 11 9 9 9 9 9 10
5 4 0 4 4 6 5 8 8 7 8 9 11 11 11 6 8 9 11 9 10 9 10 11 10 8 3 6 7 7 9 5 5 4 4 10 10 10 9 8 7 8 7
3 3 3 4 4 3 4 5 7 8 7 8 9 12 7 8 6 9 8 10 10 10 10 9 5 2 6 6 5 3 5 5 4 4 5 10 11 10 9 9 5 6 5
5 3 4 4 3 3 4 3 3 2 2 2 7 9 8 6 6 5 4 3 4 6 4 4 4 6 7 6 6 5 6 5 3 3 6 8 10 10 9 8 9 4 5
5 5 5 4 4 3 1 1 4 5 5 5 7 6 3 4 4 5 4 4 5 2 4 3 3 4 7 6 6 6 6 5 4 3 3 5 8 9 10 10 9 10 5
8 8 7 4 6 4 6 7 8 8 8 8 8 9 6 5 5 6 6 5 4 3 4 4 2 4 5 4 4 5 5 5 5 3 3 2 4 8 9 10 10 10 12
8 9 9 3 7 10 11 11 9 8 8 9 8 9 10 7 6 6 5 5 4 5 4 4 5 4 3 3 5 5 5 5 5 4 3 3 1 5 8 9 9 10 11
7 8 9 11 11 13 12 12 10 9 9 9 8 12 12 10 10 9 6 6 7 6 5 4 3 4 4 4 5 5 4 5 5 6 5 4 4 3 1 7 9 10 11
7 9 10 9 11 12 12 11 9 9 9 9 8 8 12 12 11 9 7 7 7 5 4 4 5 5 5 6 7 7 7 6 5 5 4 4 4 4 3 3 7 10 11
6 8 11 11 12 12 13 12 12 13 10 10 8 9 11 11 10 8 7 4 4 6 7 7 7 7 7 7 8 7 6 5 6 5 5 5 5 5 4 5 4 8 7
7 9 11 9 11 11 10 11 9 10 9 9 9 9 11 9 10 8 8 9 9 8 8 8 9 9 9 9 9 7 6 4 4 3 5 5 4 6 5 5 4 5 7
8 9 9 10 9 7 7 8 9 9 9 10 10 14 14 13 13 11 8 9 9 10 11 11 9 9 8 11 6 6 3 5 3 6 3 5 6 5 6 7 5 5 6
9 8 9 8 8 6 6 7 7 9 10 10 9 12 14 15 14 12 11 10 11 8 11 11 10 7 6 9 7 6 5 1 7 7 2 3 5 6 8 9 9 9 7
9 8 9 9 9 9 12 10 10 11 9 9 9 9 11 14 14 12 12 10 10 9 8 9 10 11 7 7 9 6 5 5 11 1 7 3 9 4 8 6 10 8 9
9 8 11 12 12 10 10 10 13 10 10 9 9 9 10 14 14 13 12 11 10 7 9 8 9 8 7 7 4 7 5 7 5 7 3 10 8 8 8 6 6 9 11
11 11 12 13 12 10 12 12 10 12 9 8 8 11 11 11 12 12 11 11 10 7 9 10 9 10 7 6 6 6 6 6 8 8 13 8 10 8 8 7 8 9 7
11 11 11 14 14 11 12 13 13 13 11 8 8 7 7 7 8 11 10 9 9 8 8 7 8 9 8 7 6 6 6 6 8 7 11 12 14 11 10 9 8 8 8
Wind_Direction
170 139 159 143 146 136 128 128 125 123 123 122 121 113 103 96 88 79 72 68 63 60 60 59 59 56 57 53 63 58 59 59 54 58 69 60 52 48 42 34 35 50 47
150 147 163 148 145 144 132 133 131 131 131 130 125 118 107 95 91 88 79 71 65 59 56 55 56 57 59 56 52 54 59 58 53 28 87 90 49 50 47 44 36 36 41
155 152 166 148 139 145 134 140 138 140 139 131 130 127 115 109 105 96 86 79 66 60 57 54 55 58 56 54 53 51 53 56 34 351 315 79 69 49 45 45 43 37 39
158 158 168 151 147 145 137 145 146 149 149 140 129 123 121 112 99 89 82 77 70 64 60 58 57 57 54 53 57 51 57 49 344 306 55 62 71 46 42 38 41 35 31
155 165 143 147 145 146 145 150 154 157 145 136 130 128 124 106 94 91 82 74 68 62 58 56 54 56 54 57 61 63 63 25 314 317 57 25 55 44 38 39 36 38 30
155 170 123 143 153 154 155 158 161 160 151 140 139 128 115 104 97 92 85 74 70 64 58 57 55 54 54 54 55 57 31 357 308 50 42 71 47 29 36 37 41 37 31
152 163 142 168 179 166 169 169 166 156 142 134 135 128 117 110 105 99 92 84 75 68 62 59 57 54 52 53 49 43 27 355 17 48 45 45 36 29 33 38 39 34 30
126 146 144 161 212 169 183 175 168 152 141 138 137 128 122 115 107 99 94 85 78 74 65 62 58 55 54 49 43 36 22 354 36 46 44 60 7 30 36 35 39 34 37
111 159 174 176 186 216 208 184 164 158 149 145 142 134 128 124 115 108 105 98 88 82 69 63 53 51 52 52 48 37 19 351 21 38 31 46 2 22 34 34 37 36 36
101 132 172 171 211 201 175 166 161 159 151 151 144 129 127 116 114 124 124 101 104 101 85 75 60 53 53 48 37 19 347 298 26 26 49 26 5 12 25 29 33 35 35
84 49 59 181 200 263 198 155 150 159 152 130 136 138 141 148 157 141 84 94 83 92 90 87 74 63 78 84 54 3 318 24 5 17 45 16 7 5 7 21 23 25 35
48 17 11 287 173 229 253 204 193 162 181 179 162 165 164 171 116 104 95 84 76 72 82 76 69 126 10 16 22 354 22 360 14 1 59 15 2 360 358 355 9 7 20
351 355 351 308 237 214 211 203 220 180 169 184 174 182 180 122 123 117 109 82 76 52 62 38 32 45 42 24 14 12 3 351 1 7 60 23 357 352 352 348 342 342 351
356 359 331 289 246 178 193 55 68 60 49 42 45 38 118 104 119 112 95 80 56 29 76 65 55 58 58 28 17 3 1 354 351 337 47 46 354 345 345 344 339 334 318
5 357 346 275 210 150 90 78 65 61 55 45 35 31 49 73 83 73 69 59 54 47 33 37 21 45 58 11 353 354 354 349 341 333 322 91 353 336 337 339 337 330 321
11 7 340 136 105 87 80 78 71 60 52 50 40 33 43 57 65 66 70 63 63 52 41 30 14 22 26 4 329 333 328 324 323 312 314 314 231 321 328 329 332 329 326
21 15 33 56 73 83 89 86 81 74 67 57 46 39 45 54 65 64 48 55 46 27 24 30 11 17 358 342 318 304 305 298 305 309 315 315 326 227 272 335 338 333 329
33 46 58 72 74 82 83 82 81 77 71 62 56 49 52 51 51 53 56 42 44 46 25 27 20 3 1 354 341 328 315 313 310 301 310 321 330 329 333 62 352 333 326
52 74 77 75 76 83 83 84 74 73 70 67 62 57 53 56 63 69 60 47 42 42 27 18 26 17 15 358 331 322 319 331 344 352 337 345 358 346 345 351 349 304 325
76 81 88 84 85 89 88 90 92 84 80 73 67 64 59 55 55 56 58 53 47 44 37 26 31 20 26 353 326 329 326 29 17 41 5 24 27 21 25 13 347 356 343
89 95 93 97 94 93 91 93 87 91 84 76 67 65 59 57 60 58 56 50 55 47 38 32 18 20 22 357 355 343 304 70 68 9 29 19 34 18 5 5 2 350 341
102 104 106 106 104 96 87 92 94 96 87 84 77 71 66 63 54 53 50 44 41 44 41 34 31 17 27 14 2 309 353 219 28 322 19 45 1 12 6 347 347 349 338
114 115 114 108 101 99 105 105 103 103 98 90 80 73 65 67 64 61 59 55 47 40 36 28 20 26 11 24 32 8 344 349 336 16 339 1 349 355 342 358 338 330 339
112 106 104 103 103 108 117 111 100 95 94 85 79 75 63 57 54 52 53 50 47 48 46 26 21 15 4 13 5 17 354 318 325 313 341 327 303 345 326 333 312 332 305
126 117 112 108 102 96 102 103 101 103 101 102 97 92 86 74 59 49 43 41 42 41 32 28 22 16 9 356 358 349 318 319 279 295 307 312 305 306 322 301 314 296 316
122 118 113 111 104 101 101 101 102 105 104 98 91 81 70 62 57 50 52 50 37 28 30 25 18 16 360 351 348 335 335 326 314 308 301 302 302 308 307 297 297 303 292